Tracking 28091 objects as of 30-Sep-2023
HD Live streaming from Space Station
objects crossing your sky now

STARLINK-5746

Track STARLINK-5746 now!
10-day predictions
STARLINK-5746 is classified as:


NORAD ID: 56926
Int'l Code: 2023-083BC
Perigee: 565.3 km
Apogee: 567.1 km
Inclination: 43.0 °
Period: 95.8 minutes
Semi major axis: 6937 km
RCS: Unknown
Launch date: June 12, 2023
Source: United States (US)
Launch site: AIR FORCE EASTERN TEST RANGE (AFETR)
Your satellite tracking list
Your tracking list is empty




NASA's NSSDC Master Catalog

Two Line Element Set (TLE):
1 56926U 23083BC  23273.29715174  .00000949  00000-0  85328-4 0  9999
2 56926  43.0034 232.1871 0001229 269.2230  90.8472 15.02541926 16930
Source of the keplerian elements: AFSPC